Location: Bakhuizen
(52.8696°N, 5.4575°E)
Time: 16:10:09
(UTC+00:00)

Meteor 1-11 Rocket - Pass Details

Date: 11 May 2021
Orbit: 831 x 916 km, 81.2° (Epoch: 21 June)

Event Time Altitude Azimuth Distance (km) Brightness Sun altitude
Rises 20:34:29 0° 348° (NNW) 3,568 8.1 -9.1°
Reaches altitude 10° 20:37:04 10° 354° (N) 2,622 7.2 -9.3°
Maximum altitude 20:42:54 51° 70° (ENE) 1,144 4.3 -9.9°
Enters shadow 20:48:00 13° 143° (SE) 2,352 5.3 -10.4°
